Terminal Aerodrome Forecast
Issued by NWS

Home | Current Version | Previous Version | Text Only | Print | Product List | Glossary Off
Versions: 1 2 3 4 5 6 7 8 9 10 11 12 13 14 15 16 17 18 19 20 21 22 23

000
FTUS43 KLOT 101136
TAFGYY
TAF
KGYY 101136Z 1012/1112 26006KT P6SM FEW030 SCT070 BKN100
     FM101500 25009KT P6SM BKN070
      TEMPO 1022/1023 2SM -SN BKN020
     FM102300 19007KT 3/4SM -SN BKN008 OVC015
     FM110400 16009KT 1 1/2SM -SN SCT008 OVC015
     FM111000 15012KT 3/4SM -SN BR OVC012=

USA.gov is the U.S. government's official web portal to all federal, state and local government web resources and services.